This is the latest recevied weather packets stored in our database for station/object W4KBW. If no packets are shown the sender has not sent any weather packets the latest 10 day(s).
| Time | Temp. | Humidity | Pressure | Rain* | Wind** | Luminosity | Snow |
|---|---|---|---|---|---|---|---|
| 1777905694 | 25.56° C | 100% | 1016.4 hPa | 0 mm | - | - | - |
| 1777905352 | 25.56° C | 100% | 1016.4 hPa | 0 mm | - | - | - |
| 1777904798 | 25° C | 100% | 1016.2 hPa | 0 mm | - | - | - |
| 1777904422 | 25° C | 100% | 1016.2 hPa | 0 mm | - | - | - |
| 1777903492 | 25° C | 100% | 1016.2 hPa | 0 mm | - | - | - |
| 1777902592 | 24.44° C | 100% | 1016.3 hPa | 0 mm | - | - | - |
| 1777902107 | 24.44° C | 100% | 1016 hPa | 0 mm | - | - | - |
| 1777901692 | 24.44° C | 100% | 1016 hPa | 0 mm | - | - | - |
| 1777900945 | 23.89° C | 100% | 1015.9 hPa | 0 mm | - | - | - |
| 1777900762 | 23.89° C | 100% | 1015.9 hPa | 0 mm | - | - | - |
| 1777899862 | 23.33° C | 100% | 1015.8 hPa | 0 mm | - | - | - |
| 1777898962 | 22.78° C | 100% | 1015.8 hPa | 0 mm | - | - | - |
| 1777898062 | 21.67° C | 100% | 1015.6 hPa | 0 mm | - | - | - |
| 1777897162 | 20° C | 100% | 1015.4 hPa | 0 mm | - | - | - |
| 1777896262 | 18.33° C | 100% | 1015.4 hPa | 0 mm | - | - | - |
| 1777895362 | 17.78° C | 100% | 1015.4 hPa | 0 mm | - | - | - |
| 1777894968 | 17.22° C | 100% | 1015.4 hPa | 0 mm | - | - | - |
| 1777894462 | 17.22° C | 100% | 1015.4 hPa | 0 mm | - | - | - |
| 1777893562 | 17.22° C | 100% | 1015.3 hPa | 0 mm | - | - | - |
| 1777892662 | 17.22° C | 100% | 1015 hPa | 0 mm | - | - | - |
| 1777891762 | 17.22° C | 100% | 1014.8 hPa | 0 mm | - | - | - |
| 1777891597 | 17.22° C | 100% | 1014.8 hPa | 0 mm | - | - | - |
| 1777890862 | 17.22° C | 100% | 1014.8 hPa | 0 mm | - | - | - |
| 1777889962 | 17.22° C | 100% | 1014.8 hPa | 0 mm | - | - | - |
| 1777889062 | 17.22° C | 100% | 1014.8 hPa | 0 mm | - | - | - |
* Rain latest hour (hover to see other rain measurements)
** Current wind speed in m/s (hover to see current wind gust speed)